This demonstration page uses our WeatherBlox Daily Observations layout. Learn more.

Left ArrowRight Arrow

40.97296, -117.73568

Hourly Observations for December 4, 2022

Temp ( °F °C ) Dew Point ( °F °C ) Humidity (%) Winds ( mph kmh ) Pressure ( in mb ) Visibility ( mi km ) Precip ( " mm )
12:56 am 00:56 Mostly Cloudy 34 1.1 31 -0.6 88 88 ENE 12 19 29.98 1015 10 16 0.01 0.13
1:56 am 01:56 Cloudy with Light Rain 34 1.1 31 -0.6 88 88 NE 12 19 29.96 1015 10 16 0.01 0.13
2:56 am 02:56 Cloudy with Rain 33 0.6 32 0 96 96 E 10 17 29.95 1014 7 11 0.02 0.51
3:56 am 03:56 Cloudy 35 1.7 32 0 88 88 ENE 9 15 29.91 1013 10 16 0.01 0.25
4:56 am 04:56 Cloudy 36 2.2 33 0.6 89 89 E 9 15 29.89 1012 10 16 0.00 0.00
5:56 am 05:56 Cloudy with Light Rain 36 2.2 34 1.1 92 92 WSW 3 6 29.92 1013 9 14 0.01 0.13
6:15 am 06:15 Cloudy with Light Rain 35 1.7 33 0.6 92 92 W 6 9 30.00 1016 6 10 0.02 0.51
6:56 am 06:56 Cloudy with Light Rain 34 1.1 33 0.6 96 96 WNW 6 9 29.96 1014 7 11 0.05 1.27
7:04 am 07:04 Cloudy with Light Rain 34 1.1 33 0.6 96 96 NNW 3 6 30.02 1017 9 14 0.01 0.13
7:49 am 07:49 Cloudy with Light Rain 34 1.1 33 0.6 96 96 N 3 6 30.03 1017 3 5 0.03 0.76
7:52 am 07:52 Cloudy with Rain 34 1 34 1 100 100 N 3 6 30.03 1017 3 4 0.03 0.76
7:56 am 07:56 Cloudy with Rain 35 1.7 33 0.6 92 92 NNE 3 6 29.96 1014 2 3 0.03 0.76
8:25 am 08:25 Cloudy with Light Rain 35 1.7 34 1.1 96 96 E 5 7 30.03 1017 3 5 0.05 1.27
8:39 am 08:39 Cloudy with Light Rain 35 1.7 34 1.1 96 96 Calm 30.03 1017 8 13 0.06 1.52
8:56 am 08:56 Cloudy with Light Rain 36 2.2 34 1.1 92 92 ESE 7 11 29.96 1015 8 13 0.06 1.52
9:15 am 09:15 Cloudy with Light Rain 38 3.3 36 2.2 92 92 SE 6 9 29.99 1016 10 16 0.01 0.25
9:56 am 09:56 Cloudy 39 3.9 37 2.8 93 93 S 8 13 29.95 1014 10 16 0.01 0.25
10:56 am 10:56 Mostly Cloudy 41 5 38 3.3 89 89 S 12 19 29.93 1014 10 16 0.00 0.00
11:56 am 11:56 Cloudy 44 6.7 39 3.9 82 82 S 13 20 29.91 1013 10 16 0.01 0.13
12:43 pm 12:43 Cloudy with Light Rain 38 3.3 35 1.7 89 89 W 17 28 29.98 1015 6 10 0.01 0.13
12:56 pm 12:56 Cloudy with Rain 36 2.2 34 1.1 92 92 WNW 17 28 29.96 1015 5 8 0.02 0.51
1:23 pm 13:23 Cloudy with Light Snow 34 1.1 32 0 92 92 W 12 19 30.04 1017 2 3 0.03 0.76
1:31 pm 13:31 Cloudy with Light Snow 34 1.1 32 0 92 92 W 8 13 30.04 1017 3 5 0.04 1.02
1:56 pm 13:56 Cloudy 37 2.8 34 1.1 89 89 Calm 29.96 1015 10 16 0.05 1.27
2:56 pm 14:56 Mostly Cloudy 39 3.9 34 1.1 82 82 SE 6 9 29.98 1015 10 16 0.01 0.13
3:56 pm 15:56 Mostly Cloudy 39 3.9 33 0.6 79 79 VRB 5 7 30.00 1016 10 16 0.00 0.00
4:56 pm 16:56 Clear 36 2.2 30 -1.1 79 79 Calm 30.02 1017 10 16 0.00 0.00
5:56 pm 17:56 Clear 36 2.2 28 -2.2 73 73 Calm 30.04 1017 10 16 0.00 0.00
6:56 pm 18:56 Clear 34 1.1 28 -2.2 79 79 Calm 30.05 1018 10 16 0.00 0.00
7:56 pm 19:56 Clear 32 0 28 -2.2 85 85 E 3 6 30.05 1018 10 16 0.00 0.00
8:56 pm 20:56 Clear 29 -1.7 27 -2.8 92 92 SSE 7 11 30.06 1018 10 16 0.00 0.00
9:56 pm 21:56 Clear 30 -1.1 26 -3.3 85 85 N 6 9 30.05 1018 10 16 0.00 0.00
10:56 pm 22:56 Clear 27 -2.8 24 -4.4 89 89 SSW 3 6 30.06 1018 10 16 0.00 0.00
11:56 pm 23:56 Clear 27 -2.8 24 -4.4 89 89 SSE 7 11 30.04 1017 10 16 0.00 0.00

Powered by AerisWeather